This is the latest recevied weather packets stored in our database for station/object DG8SF-13. If no packets are shown the sender has not sent any weather packets the latest 10 day(s).
| Time | Temp. | Humidity | Pressure | Rain* | Wind** | Luminosity | Snow |
|---|---|---|---|---|---|---|---|
| 1787814566 | 21.11° C | 74% | 1014.5 hPa | 0 mm | - | - | - |
| 1787814245 | 21.11° C | 75% | 1014.6 hPa | 0 mm | - | - | - |
| 1787813919 | 20.56° C | 77% | 1014.5 hPa | 0 mm | - | - | - |
| 1787813595 | 20.56° C | 76% | 1014.5 hPa | 0 mm | - | - | - |
| 1787813283 | 20.56° C | 78% | 1014.7 hPa | 0 mm | - | - | - |
| 1787812962 | 19.44° C | 81% | 1014.7 hPa | 0 mm | - | - | - |
| 1787812649 | 19.44° C | 80% | 1014.6 hPa | 0 mm | - | - | - |
| 1787812326 | 19.44° C | 81% | 1014.7 hPa | 0 mm | - | - | - |
| 1787812011 | 18.89° C | 82% | 1014.6 hPa | 0 mm | - | - | - |
| 1787811689 | 18.33° C | 85% | 1014.4 hPa | 0 mm | - | - | - |
| 1787811364 | 17.78° C | 85% | 1014.3 hPa | 0 mm | - | - | - |
| 1787811053 | 17.78° C | 86% | 1014.4 hPa | 0 mm | - | - | - |
| 1787810739 | 17.78° C | 87% | 1014.4 hPa | 0 mm | - | - | - |
| 1787810406 | 17.22° C | 88% | 1014.4 hPa | 0 mm | - | - | - |
| 1787810091 | 17.22° C | 89% | 1014.4 hPa | 0 mm | - | - | - |
| 1787809780 | 16.67° C | 92% | 1014.4 hPa | 0 mm | - | - | - |
| 1787809468 | 16.11° C | 96% | 1014.3 hPa | 0 mm | - | - | - |
| 1787809157 | 15.56° C | 97% | 1014.3 hPa | 0 mm | - | - | - |
| 1787808831 | 15° C | 97% | 1014.3 hPa | 0 mm | - | - | - |
| 1787808512 | 15° C | 97% | 1014.3 hPa | 0 mm | - | - | - |
| 1787808195 | 14.44° C | 97% | 1014.3 hPa | 0 mm | - | - | - |
| 1787807885 | 14.44° C | 97% | 1014.4 hPa | 0 mm | - | - | - |
| 1787807572 | 13.89° C | 96% | 1014.5 hPa | 0 mm | - | - | - |
| 1787807261 | 14.44° C | 97% | 1014.4 hPa | 0 mm | - | - | - |
| 1787806947 | 14.44° C | 97% | 1014.4 hPa | 0 mm | - | - | - |
* Rain latest hour (hover to see other rain measurements)
** Current wind speed in m/s (hover to see current wind gust speed)